Vancouver Int'l Airport, British Columbia

Past 24 Hour Conditions

Date / Time
(PDT)
Conditions Temp
(°C)
Humidity
(%)
Dew Point
(°C)
Wind
(km/h)
Pressure
(kPa)
Visibility
(km)
19 April 2015
8:00 Cloudy 11 86 9 WNW 18 102.4 48
7:00 Cloudy 8 93 7 NW 10 102.4 48
6:00 Partly Cloudy 6   91 5 N 7 102.4 48
5:00 Mainly Clear 7 89 6 NW 9 102.4 24
4:00 Mainly Clear 7 87 5 NW 7 102.4 24
3:00 Mainly Clear 9 83 6 ENE 5 102.4 24
2:00 Partly Cloudy 7 90 6 NW 3 102.4 24
1:00 Mainly Clear 7 87 5 NW 7 102.4 24
00:00 Partly Cloudy 9 88 7 NW 8 102.4 24
18 April 2015
23:00 Partly Cloudy 10 86 8 NW 16 102.4 32
22:00 Partly Cloudy 10 84 8 NW 16 102.4 48
21:00 Mostly Cloudy 11 82 8 WNW 19 102.4 48
20:00 Mostly Cloudy 11 83 8 WNW 23 102.5 48
19:00 Mostly Cloudy 12 74 8 WNW 23 102.5 48
18:00 Mostly Cloudy 12 78 9 WNW 21 102.6 48
17:00 Mostly Cloudy 13 73 9 WNW 20 102.6 48
16:00 Mostly Cloudy 14   76 9 WNW 16 102.7 48
15:00 Mostly Cloudy 14   73 9 WNW 19 102.8 48
14:00 Mostly Cloudy 13 70 8 WNW 21 102.8 48
13:00 Mostly Cloudy 13 77 9 W 21 102.9 48
12:00 Cloudy 13 72 8 WNW 21 102.9 48
11:00 Mostly Cloudy 12 76 8 WNW 19 103.0 48
10:00 Sunny 11 78 8 WNW 20 103.0 48
9:00 Sunny 11 79 8 WNW 18 103.0 48
8:00 Sunny 10 81 7 NW 16 102.9 48
N/A Not available
↑ Highest temperature
↓ Lowest temperature

If you require additional historical weather information, please visit Climate Data Online.

What we are doing

Date modified: